Weather History for CYBG - July, 2013

Change the Weather History Date:

Friday, July 19, 2013

  Actual Average Record
Temperature  
Mean Temperature 72 °F -  
Max Temperature 86 °F 73 °F 87 °F (2005)
Min Temperature 59 °F 52 °F 44 °F (2002)
Cooling Degree Days 8    
Growing Degree Days 22 (Base 50)    
Moisture  
Dew Point 63 °F    
Average Humidity 74    
Maximum Humidity 100    
Minimum Humidity 48    
Precipitation  
Precipitation 0.20 in 0.14 in - ()
Sea Level Pressure  
Sea Level Pressure 29.55 in    
Wind  
Wind Speed 10 mph ()    
Max Wind Speed 23 mph    
Max Gust Speed 31 mph    
Visibility 12.2 miles    
Events Rain    
Averages and records for this station are not official NWS values.
T = Trace of Precipitation, MM = Missing Value Source: Averaged Metar Reports

Daily Weather History Graph

Daily Weather History Graph

Search for Another Location

Airport or City:

Trip Planner

Search our weather history database for the weather conditions in past years. The results will help you decide how hot, cold, wet, or windy it might be!

Date:

Astronomy

Jul. 19, 2013 Rise Set
Actual Time 5:03 AM EDT 8:36 PM EDT
Civil Twilight 4:24 AM EDT 9:15 PM EDT
Nautical Twilight 3:31 AM EDT 10:07 PM EDT
Astronomical Twilight 2:20 AM EDT 11:17 PM EDT
Moon 5:35 PM EDT (7/19) 1:43 AM EDT (7/19)
Length of Visible Light 16h 51m
Length of Day
15h 33m
Waxing Gibbous, 86% of the Moon is Illuminated
Jul 19
Waxing Gibbous
Jul 22
Full
Jul 29
Last Quarter
Aug 6
New
Aug 14
First Quarter

Hourly Weather History & Observations

Time (EDT) Temp. Heat Index Dew Point Humidity Pressure Visibility Wind Dir Wind Speed Gust Speed Precip Events Conditions
12:00 AM 64.4 °F - 59.0 °F 83% 29.88 in 15.0 mi East 5.8 mph - N/A   Overcast
1:00 AM 64.4 °F - 57.2 °F 77% 29.86 in 15.0 mi ESE 5.8 mph - N/A   Overcast
2:00 AM 63 °F - 57 °F 74% 29.83 in 15 mi ESE 8.1 mph - -   Overcast
2:00 AM 62.6 °F - 57.2 °F 82% 29.83 in 15.0 mi ESE 9.2 mph - N/A   Overcast
3:00 AM 64.4 °F - 55.4 °F 73% 29.81 in 15.0 mi East 10.4 mph - N/A   Overcast
3:25 AM - - - N/A% - 15.0 mi ESE 8.1 mph - N/A Rain Light Rain Showers
4:00 AM 64.4 °F - 59.0 °F 83% 29.75 in 15.0 mi ESE 10.4 mph - N/A   Overcast
4:31 AM - - - N/A% - 15.0 mi East 8.1 mph - N/A Rain Light Rain Showers
5:00 AM 64.4 °F - 59.0 °F 83% 29.72 in 15.0 mi East 9.2 mph - N/A Rain Light Rain Showers
6:00 AM 62.6 °F - 59.0 °F 88% 29.69 in 4.0 mi ESE 6.9 mph - N/A Rain Light Rain Showers
6:08 AM - - - N/A% - 3.0 mi East 8.1 mph - N/A Rain Rain Showers
6:27 AM - - - N/A% - 3.0 mi East 12.7 mph - N/A Rain Light Rain Showers
7:00 AM 59.0 °F - 59.0 °F 100% 29.64 in 3.0 mi East 13.8 mph - N/A Rain Light Rain Showers
7:30 AM - - - N/A% - 10.0 mi East 17.3 mph - N/A   Overcast
8:00 AM 62 °F - 60 °F 92% 29.58 in 10 mi East 17.3 mph - - Rain Light Rain Showers
8:00 AM 62.6 °F - 60.8 °F 94% 29.58 in 10.0 mi East 17.3 mph - N/A Rain Light Rain Showers
9:00 AM 62.6 °F - 60.8 °F 94% 29.55 in 3.0 mi East 13.8 mph - N/A Rain Light Rain Showers
9:42 AM - - - N/A% - 1.0 mi East 12.7 mph - N/A Rain Rain Showers
10:00 AM 62.6 °F - 62.6 °F 100% 29.52 in 3.0 mi ESE 9.2 mph - N/A Rain Light Rain Showers
10:29 AM - - - N/A% - 8.0 mi East 6.9 mph - N/A   Mostly Cloudy
11:00 AM 71.6 °F - 66.2 °F 83% 29.49 in 15.0 mi East 5.8 mph - N/A   Mostly Cloudy
12:00 PM 80.6 °F 83.2 °F 68.0 °F 65% 29.47 in 20.0 mi WSW 16.1 mph 23.0 mph N/A   Mostly Cloudy
1:00 PM 82.4 °F 85.4 °F 68.0 °F 62% 29.46 in 20.0 mi WSW 20.7 mph 28.8 mph N/A   Mostly Cloudy
2:00 PM 84 °F - 67 °F 48% 29.43 in 19 mi WSW 20.7 mph - -   Partly Cloudy
2:00 PM 84.2 °F 87.3 °F 68.0 °F 58% 29.43 in 20.0 mi WSW 20.7 mph 27.6 mph N/A   Scattered Clouds
3:00 PM 86.0 °F 88.2 °F 66.2 °F 51% 29.41 in 20.0 mi West 16.1 mph 24.2 mph N/A   Partly Cloudy
4:00 PM 80.6 °F 82.3 °F 64.4 °F 58% 29.42 in 25.0 mi West 12.7 mph 20.7 mph N/A   Mostly Cloudy
5:00 PM 80.6 °F 82.7 °F 66.2 °F 61% 29.41 in 25.0 mi West 10.4 mph - N/A   Overcast
6:00 PM 80.6 °F 82.7 °F 66.2 °F 61% 29.39 in 25.0 mi WSW 8.1 mph - N/A Rain Light Rain Showers
6:18 PM - - - N/A% - 25.0 mi West 10.4 mph 19.6 mph N/A   Mostly Cloudy
7:00 PM 80.6 °F 83.2 °F 68.0 °F 65% 29.38 in 25.0 mi WSW 5.8 mph - N/A   Mostly Cloudy
8:00 PM 79 °F - 66 °F 57% 29.37 in 25 mi WSW 6.9 mph - -   Partly Cloudy
8:00 PM 78.8 °F - 66.2 °F 65% 29.37 in 25.0 mi WSW 6.9 mph - N/A   Mostly Cloudy
9:00 PM 77.0 °F - 66.2 °F 69% 29.38 in 15.0 mi WSW 13.8 mph - N/A   Scattered Clouds
10:00 PM 77.0 °F - 66.2 °F 69% 29.37 in 15.0 mi WSW 15.0 mph 20.7 mph N/A   Mostly Cloudy
11:00 PM 78.8 °F - 66.2 °F 65% 29.37 in 15.0 mi WSW 23.0 mph 29.9 mph N/A   Mostly Cloudy
11:29 PM - - - N/A% - 15.0 mi West 19.6 mph 31.1 mph N/A Rain Light Rain Showers